Tracking 19193 objects as of 24-Jun-2018
HD Live streaming from Space Station
objects crossing your sky now

FENGYUN 1C DEB

Track FENGYUN 1C DEB now!
10-day predictions


NORAD ID: 30758
Int'l Code: 1999-025ATU
Perigee: 840.5 km
Apogee: 908.2 km
Inclination: 99.0 °
Period: 102.3 minutes
Semi major axis: 7245 km
RCS: 0.0121 m2 (small)
Launch date: May 10, 1999
Source: People's Republic of China (PRC)
Launch site: Taiyaun Space Center, China (TSC)

Note: This is SATELLITE DEBRIS
aabbcc
Your satellite tracking list
Your tracking list is empty




NASA's NSSDC Master Catalog

Two Line Element Set (TLE):
1 30758U 99025ATU 18174.89932529 +.00000314 +00000-0 +20963-3 0  9997
2 30758 099.0118 257.5918 0046713 113.5987 313.8141 14.07716698580288
Source of the keplerian elements: AFSPC